Presure
130 143 142 144 148 139 116 151 106 157 153 86 145 111 98 89 95 99 96 99 91 91 133 137 93 146 145 136 132 140 160 149 146 144 136 140 111 126 87 116 85 87 90 96 91 91 130 94 128
117 146 141 152 146 146 141 138 105 101 132 97 111 145 110 92 95 89 84 93 100 107 139 98 142 139 145 137 144 157 124 143 154 80 88 102 87 87 82 81 84 94 90 87 90 92 93 92 90
135 142 140 144 128 138 147 147 107 140 89 96 94 93 117 90 93 92 95 97 90 96 104 143 121 150 152 147 155 147 136 151 150 142 84 89 138 85 83 82 89 86 88 89 85 83 86 85 87
77 132 135 148 138 96 93 91 89 141 95 88 96 99 96 93 107 125 127 96 109 95 100 97 99 156 168 147 150 151 146 86 84 128 148 83 112 89 81 82 83 84 79 83 78 89 124 82 146
82 71 125 133 103 79 100 119 91 104 95 97 93 92 149 105 138 138 109 96 131 93 98 110 154 138 83 144 127 86 129 132 131 127 84 125 123 82 77 76 87 83 96 103 111 115 122 118 132
81 84 83 88 67 108 79 108 149 93 122 114 97 94 110 142 95 137 94 95 86 120 123 145 156 157 150 112 115 100 85 87 88 81 87 83 82 80 78 87 81 85 95 87 104 107 119 140 136
86 83 79 82 83 104 138 143 99 118 81 81 93 139 140 134 94 119 125 124 147 127 145 96 93 133 145 96 141 116 90 79 81 83 79 90 86 87 85 83 82 84 90 110 105 114 163 153 127
77 76 80 79 87 77 85 84 87 122 87 101 128 103 114 89 97 92 91 88 84 95 95 95 84 130 87 86 87 89 79 83 81 80 82 86 96 93 137 92 104 103 105 111 112 115 100 107 113
81 79 82 82 103 87 112 75 75 86 122 79 83 85 84 82 82 80 82 88 85 80 87 92 87 83 86 86 84 85 89 129 96 98 143 113 131 134 166 162 160 132 91 119 119 117 118 141 156
135 61 81 87 85 66 86 83 80 84 83 84 96 87 90 91 88 86 87 91 77 74 88 91 99 95 92 79 98 93 83 89 97 90 108 163 102 79 105 152 171 166 138 126 117 138 142 130 140
182 167 155 116 80 72 70 85 152 79 88 82 86 87 89 79 94 96 91 95 86 92 93 103 115 92 86 87 92 93 83 91 80 71 99 100 94 99 96 102 158 160 160 149 140 105 120 138 137
150 178 178 175 73 140 81 75 86 86 82 86 78 85 80 82 83 79 80 89 81 82 93 89 88 131 75 147 119 89 136 89 91 95 180 101 92 100 154 144 144 147 145 147 150 154 134 151 152
162 157 177 168 165 134 151 173 126 102 113 80 80 82 79 81 82 99 83 78 89 89 89 134 90 75 96 83 86 83 101 88 105 104 149 120 106 146 161 149 149 150 136 141 147 191 180 227 178
207 185 144 182 169 163 127 135 171 152 165 159 120 107 85 86 87 83 84 89 122 154 98 86 94 99 132 86 133 188 123 169 150 124 147 138 159 147 142 140 140 145 209 223 240 240 257 246 226
130 195 149 173 215 166 149 152 167 156 161 135 162 157 141 116 110 106 124 156 96 149 149 198 148 168 202 190 193 148 142 143 140 141 144 145 137 140 148 228 291 285 219 254 260 318 316 308 305
136 127 118 191 148 188 190 185 150 153 174 157 166 159 157 165 157 158 183 131 130 128 128 137 173 171 160 134 139 145 147 145 128 128 133 149 179 279 270 266 264 262 252 304 290 279 276 281 283
126 135 139 118 131 132 130 132 139 151 152 154 152 165 152 152 153 154 144 144 144 144 160 150 150 154 148 135 128 136 133 137 147 150 280 270 239 226 277 303 293 280 275 275 258 242 238 239 238
189 169 185 139 139 130 205 151 133 127 138 140 136 140 140 136 137 128 130 140 143 135 139 144 150 145 138 135 133 138 144 151 256 260 218 287 300 283 261 255 238 237 235 230 230 227 220 218 219
194 187 183 153 138 187 136 137 138 141 136 126 129 125 124 146 132 197 138 134 133 140 144 126 132 135 138 138 145 298 273 261 232 272 279 267 238 235 236 224 221 220 212 215 229 231 222 267 230
195 195 203 196 194 199 136 138 135 132 135 141 134 141 127 126 127 128 131 136 140 140 142 143 143 153 432 453 431 405 321 296 282 262 239 235 227 222 213 214 213 209 214 223 224 204 225 223 222
200 206 201 208 174 135 181 139 133 196 133 128 133 130 133 133 136 136 139 148 142 145 147 148 194 213 237 315 301 288 276 261 239 231 221 215 214 214 205 203 206 221 216 204 197 224 212 235 235
203 202 209 206 197 194 178 186 196 148 140 135 136 138 137 136 137 142 140 141 196 144 179 216 256 237 233 232 228 226 223 217 213 218 209 201 201 205 196 189 195 242 234 244 247 241 211 238 243
205 204 204 208 213 195 169 181 198 138 201 133 138 134 138 209 210 209 214 210 180 204 209 229 212 231 219 220 213 212 198 198 206 204 203 192 192 194 200 245 175 232 237 239 236 229 230 229 232
214 209 206 206 203 198 193 207 200 203 198 195 197 201 199 196 208 213 189 196 207 210 222 214 228 219 209 206 198 201 201 199 189 193 195 206 224 235 227 219 198 204 226 231 222 236 238 220 218
211 212 208 198 195 203 202 210 198 210 206 201 199 206 194 208 204 197 197 206 227 219 224 224 215 209 203 202 190 188 192 187 187 192 225 203 212 210 217 223 212 217 206 215 204 210 210 216 220
217 208 206 205 211 217 197 198 200 198 200 199 202 200 205 199 197 198 272 245 223 228 207 211 193 202 201 194 194 194 185 179 215 233 202 198 215 208 222 212 214 213 196 224 202 219 213 215 218
226 225 227 227 228 224 227 204 204 207 200 204 203 197 212 193 226 276 233 225 225 212 207 200 200 200 184 192 187 183 207 207 215 220 223 212 206 207 206 200 206 221 211 203 224 222 222 216 206
285 285 280 278 273 198 220 205 198 205 234 206 221 224 258 265 253 229 230 213 205 192 200 202 193 193 187 210 183 192 194 192 209 193 220 198 186 210 201 205 221 202 211 227 195 201 195 202 211
295 290 290 258 232 224 271 268 261 219 225 222 253 271 224 224 225 222 210 198 202 203 195 181 190 166 172 188 189 215 202 206 201 208 202 206 193 204 193 194 210 191 214 220 210 203 204 213 223
270 142 270 260 195 191 192 213 279 267 243 221 213 233 207 212 207 188 197 200 191 192 181 179 186 187 182 185 181 193 189 185 189 190 192 203 213 216 202 214 198 208 210 197 201 220 213 217 202
Wind_Speed
36 41 41 38 38 35 28 27 24 31 29 9 32 20 18 9 12 13 9 10 9 10 22 26 12 28 30 31 31 29 26 30 31 30 26 27 11 20 7 16 12 13 13 15 14 15 26 17 24
33 45 42 43 36 34 38 35 20 24 27 19 20 31 21 13 15 10 6 13 11 18 31 14 30 32 31 32 30 27 26 31 31 5 5 15 6 7 9 12 14 15 16 18 17 17 17 18 20
45 46 44 42 38 39 38 42 23 31 16 20 18 18 24 15 16 15 14 15 12 14 20 31 22 31 30 31 28 31 32 30 32 33 6 9 33 9 11 13 18 16 18 18 17 20 20 19 21
18 44 46 44 40 24 20 23 17 35 22 14 20 21 20 19 23 28 29 16 21 16 18 17 15 35 38 33 32 31 33 7 7 26 35 11 23 16 13 17 20 21 17 23 19 27 28 23 34
24 10 43 42 23 9 26 32 19 28 23 22 20 18 37 23 34 38 23 18 32 16 19 22 38 35 12 36 27 12 30 30 30 31 13 32 31 15 14 17 26 24 30 31 32 32 31 32 35
24 23 23 17 4 28 12 35 43 22 34 26 25 21 26 39 22 38 20 18 16 32 30 37 40 40 37 23 25 19 14 16 16 13 19 17 19 19 18 25 26 30 33 34 34 34 35 44 42
32 25 26 23 23 30 46 46 25 38 15 12 19 38 39 39 22 33 39 36 43 33 40 23 20 38 39 20 39 30 19 14 15 19 18 27 28 30 31 29 29 32 37 39 39 40 50 49 45
23 22 32 25 34 19 29 22 20 39 24 28 41 33 37 20 27 21 21 19 18 20 22 22 21 41 21 20 21 23 17 21 22 23 27 30 33 37 48 41 43 44 44 44 44 44 43 45 45
31 30 37 29 21 31 32 14 16 25 43 13 17 24 22 21 17 17 18 23 20 16 22 26 26 25 25 26 23 26 30 44 33 35 50 44 49 51 54 54 55 52 34 51 52 50 50 55 56
47 4 32 38 33 4 36 31 24 28 23 21 33 28 30 29 30 29 29 31 17 14 30 31 34 34 32 22 36 35 30 36 40 37 47 59 47 29 49 57 59 58 57 57 54 59 60 57 57
76 60 57 48 30 9 2 38 55 22 35 26 28 29 30 24 34 36 32 36 31 36 36 40 43 33 32 36 40 40 36 43 32 20 51 51 50 53 54 57 60 61 61 63 62 55 58 62 62
67 76 75 71 9 52 30 19 28 38 32 37 25 32 27 30 34 28 29 37 28 36 43 41 38 49 22 61 54 47 60 49 52 57 65 58 51 60 63 63 64 65 66 68 69 69 65 71 71
73 65 75 65 59 56 62 63 58 58 49 26 29 33 29 32 36 40 37 27 42 44 46 56 42 25 50 45 34 44 51 42 47 62 64 64 62 67 69 69 69 70 69 71 72 74 74 82 74
64 63 65 67 63 57 44 45 62 58 57 57 57 47 45 45 47 41 42 49 57 59 51 44 51 58 63 49 65 70 47 69 68 65 69 67 71 71 71 72 73 74 76 74 74 75 71 73 82
58 67 63 61 58 60 63 61 60 61 58 59 57 58 58 63 63 63 64 57 60 55 59 75 67 70 72 70 70 70 71 69 71 70 72 74 74 75 79 78 61 62 77 66 65 43 40 43 45
67 60 58 59 64 58 62 76 63 61 66 59 59 57 56 57 58 60 71 66 70 71 70 69 72 70 71 71 72 73 76 75 67 68 73 80 77 60 59 58 59 60 55 38 40 43 43 42 41
64 67 67 62 64 63 61 62 60 60 59 60 57 63 57 59 60 61 57 63 69 71 69 75 75 72 70 70 73 77 76 79 80 80 61 61 63 63 44 31 33 38 38 37 37 38 40 40 41
61 63 61 69 66 65 59 65 63 59 61 58 60 60 62 61 60 70 70 70 70 74 73 74 73 71 71 75 79 82 83 84 62 62 67 38 29 33 35 34 34 34 34 35 36 37 40 43 43
60 61 61 65 68 63 69 68 64 64 63 63 65 62 62 64 69 71 72 74 74 76 77 60 69 72 76 80 83 61 58 56 61 46 37 36 34 33 32 33 33 34 38 38 41 41 40 35 45
62 63 65 61 61 60 72 69 69 67 66 67 68 67 69 70 72 76 74 77 77 77 77 77 75 77 30 20 14 12 14 23 29 30 31 29 30 30 34 34 35 37 41 44 43 45 45 45 47
65 70 63 64 66 71 62 69 69 56 70 69 69 70 74 73 77 80 80 81 77 78 78 77 72 64 52 19 12 9 15 20 25 27 29 31 32 33 36 39 40 46 42 44 47 43 46 42 39
64 61 63 61 56 55 58 55 51 68 71 74 75 76 76 75 77 78 80 80 74 80 73 66 44 46 37 29 27 24 24 25 30 33 30 36 38 39 39 46 42 38 36 34 33 35 44 39 40
61 60 58 58 59 51 62 57 48 71 51 74 76 77 75 59 59 61 60 62 64 61 62 54 52 35 33 26 28 27 36 36 35 36 37 39 42 44 42 29 51 38 36 36 40 41 42 43 41
65 62 58 55 52 48 55 47 46 50 51 52 52 53 53 57 58 54 58 53 57 54 49 47 34 31 33 33 37 38 35 41 43 41 41 39 34 30 35 39 47 45 39 39 42 39 39 46 49
59 61 59 50 47 54 50 48 46 48 50 52 52 52 53 53 49 50 50 53 42 45 39 32 30 35 37 36 44 43 41 41 47 45 39 46 45 46 42 39 44 44 51 48 50 52 52 50 50
67 58 56 57 64 64 47 45 45 47 49 52 53 52 51 49 48 48 31 29 42 34 41 33 48 37 40 39 39 41 43 51 47 38 49 49 44 48 43 47 49 48 54 50 55 54 57 56 56
70 68 69 69 70 65 65 46 47 45 47 54 52 45 50 49 40 23 31 37 31 34 33 39 38 39 46 41 42 44 50 50 48 46 45 47 50 52 52 55 55 50 54 58 54 53 55 58 63
52 55 55 56 56 39 43 38 41 48 53 49 48 47 35 27 22 31 29 29 34 43 38 37 40 41 44 51 47 49 50 52 50 54 44 56 56 53 58 56 52 58 56 58 66 64 66 68 63
38 40 42 40 37 39 43 41 39 45 43 42 33 22 29 26 24 25 28 35 34 35 37 42 41 48 47 46 49 47 54 55 55 54 54 55 63 58 61 66 59 66 64 59 63 68 71 70 70
26 27 27 25 39 40 39 36 23 24 25 27 27 19 30 24 25 39 36 34 38 38 43 47 46 50 48 52 54 59 56 60 61 64 65 62 60 61 62 63 69 66 68 74 73 73 75 73 75
Wind_Direction
236 237 237 240 245 242 232 251 224 249 251 203 248 230 228 234 234 237 244 240 261 259 269 267 278 273 277 283 291 287 282 283 287 291 297 296 291 298 324 300 327 323 322 316 317 313 293 313 295
234 238 235 244 240 245 246 243 216 223 244 218 239 255 237 237 234 230 236 251 250 258 269 267 270 275 273 280 279 278 298 282 281 268 257 292 297 296 327 333 326 305 306 310 308 307 307 306 307
233 237 235 238 231 239 247 247 230 247 220 222 223 228 245 231 230 237 239 246 239 253 263 273 273 279 278 276 278 276 286 277 277 284 271 287 290 310 316 320 317 314 311 304 295 299 297 295 295
201 232 233 240 236 222 225 224 222 246 228 221 230 236 235 231 247 258 259 239 264 245 267 259 269 284 290 275 277 278 279 264 281 282 281 308 289 303 312 311 306 304 289 294 283 295 282 282 284
209 221 232 234 222 218 225 237 226 233 232 237 228 226 261 243 261 263 249 237 266 243 254 265 283 272 268 277 276 275 277 277 278 282 291 284 285 299 295 295 303 301 297 289 290 288 287 284 286
219 214 219 232 259 238 240 235 246 234 245 239 241 236 247 258 241 263 234 238 247 269 271 275 284 285 283 285 279 274 275 281 287 298 300 299 296 287 283 293 287 290 290 287 288 288 291 290 290
224 217 228 228 233 236 240 241 235 240 246 250 238 252 254 254 243 259 265 265 274 269 274 278 287 274 279 258 277 275 280 288 291 296 291 298 295 292 287 281 278 280 279 289 286 290 285 287 288
220 221 233 224 239 230 233 234 238 244 242 246 249 248 252 260 246 246 248 256 261 260 260 260 277 275 281 287 286 286 282 286 291 291 289 284 291 286 279 282 288 286 285 287 287 286 284 283 283
224 227 239 221 235 240 249 251 249 254 248 271 254 259 264 278 272 284 279 270 276 289 278 270 274 279 280 283 286 285 286 281 296 299 275 285 284 285 285 285 286 286 291 284 283 283 282 282 284
243 105 236 232 240 46 245 243 246 248 257 259 253 254 258 255 262 274 275 269 278 274 286 282 279 277 281 269 289 290 276 286 296 284 281 285 285 289 284 289 289 291 284 281 282 282 283 282 282
239 239 242 237 242 243 304 253 247 252 256 260 259 260 260 271 261 262 269 267 282 281 283 279 279 279 282 285 291 292 278 284 273 281 284 282 279 281 282 283 292 292 290 284 283 281 280 282 281
226 241 244 244 235 236 255 265 264 255 257 258 264 256 259 266 268 268 271 277 280 279 277 277 278 284 274 274 278 287 278 282 281 280 288 283 285 285 291 288 288 287 285 285 285 284 282 284 283
236 229 242 242 239 236 244 251 248 252 253 267 266 265 263 263 265 267 271 274 276 273 273 281 278 271 286 275 278 277 283 281 282 277 290 285 285 292 292 289 288 287 284 285 284 282 280 279 278
234 233 232 239 243 238 240 245 253 249 252 252 256 262 268 267 266 267 267 268 272 279 270 274 280 282 281 275 282 290 288 288 290 287 292 291 293 289 287 286 285 285 285 284 282 281 285 281 278
237 235 231 235 245 237 239 239 249 244 250 256 253 257 259 265 268 268 269 273 269 276 273 294 274 291 293 292 290 287 290 290 290 292 293 292 289 288 288 290 290 291 288 289 291 293 293 292 291
235 239 241 242 236 246 242 250 240 244 257 250 256 255 259 264 265 268 278 270 272 275 280 285 279 278 279 291 291 289 290 290 288 288 290 291 291 298 296 295 295 293 289 295 296 295 295 297 297
237 237 237 243 244 247 248 250 248 246 247 251 252 259 257 260 263 266 270 267 265 268 273 273 277 279 285 291 292 291 290 291 291 291 296 299 300 296 298 299 300 301 302 304 305 301 299 297 296
236 236 241 238 241 247 250 249 250 255 253 254 257 257 258 264 265 266 272 269 280 278 281 283 282 287 292 290 289 290 290 291 292 294 296 299 305 303 307 311 304 307 307 302 302 299 295 295 293
239 239 240 241 240 243 247 250 252 251 254 258 260 266 267 261 266 278 269 273 278 279 283 292 293 293 289 288 290 284 285 287 292 298 303 305 305 306 311 305 301 300 295 298 308 308 299 306 305
240 241 245 243 244 246 244 246 251 255 254 255 259 259 265 267 271 272 273 275 278 282 286 289 292 291 312 302 298 286 276 285 293 304 301 306 307 303 297 300 300 292 302 311 309 291 305 303 302
240 242 244 246 243 243 249 246 252 258 258 261 260 264 264 266 268 272 276 276 282 284 287 289 295 302 313 18 13 333 308 305 308 311 305 303 302 304 290 293 303 311 295 301 295 303 301 301 301
240 242 245 247 244 246 248 251 258 254 257 259 261 262 266 269 271 275 279 284 285 289 289 294 303 310 317 327 324 325 319 311 310 324 307 297 300 309 294 289 298 307 312 317 317 313 301 309 312
243 244 247 249 251 245 247 251 260 257 260 259 262 266 270 275 276 278 282 283 279 285 287 299 298 304 302 310 304 306 293 293 310 309 305 292 293 293 300 311 288 311 320 324 322 312 312 311 313
243 245 247 249 250 249 249 254 254 258 258 258 262 269 270 272 277 280 276 282 282 283 293 293 297 298 296 301 294 300 305 300 293 299 299 305 315 322 317 314 301 304 316 319 312 321 316 307 305
244 246 246 243 241 251 250 258 250 262 262 263 265 269 266 275 274 273 277 279 274 289 289 291 294 294 292 295 291 292 299 293 295 299 314 307 312 310 312 313 312 312 308 308 305 307 306 305 305
246 248 248 249 255 257 247 250 252 253 259 262 265 266 274 270 271 275 274 268 287 283 289 287 292 295 294 288 298 299 289 294 308 315 308 306 305 305 315 307 313 306 303 312 305 305 305 302 301
246 250 251 253 256 256 258 252 255 256 258 262 266 265 275 267 272 258 266 277 278 281 285 287 294 296 291 295 294 294 308 310 312 313 315 314 310 311 310 307 306 310 306 305 307 303 302 300 303
235 239 242 245 248 245 251 251 250 259 265 259 270 272 263 257 249 265 265 275 280 283 286 292 288 294 292 304 294 303 306 307 308 307 307 308 304 306 305 305 310 303 302 307 303 303 305 304 301
235 238 241 242 247 245 256 261 262 261 267 267 262 245 263 261 261 267 272 278 283 290 283 285 288 286 291 296 301 306 308 303 304 302 302 301 305 305 304 303 303 302 308 305 298 299 300 298 302
228 246 237 241 237 241 246 256 243 251 252 258 268 239 261 265 267 275 275 284 281 287 282 285 295 296 294 304 300 307 304 304 305 304 303 303 306 306 300 307 300 303 305 300 300 302 301 301 301